EW2751 Weather Reports


time (UTC)temp
C
wind
direction
speed
KPH
gust
KPH
rain 1hr
cm
rain 24hr
cm
rain mn
cm
humidity
%
barometer
mb
20260503221019 17 168 3.2 6.4 0.00 0.00 0.00 72 1034.0
20260503220522 17 187 1.6 8.0 0.00 0.00 0.00 73 1034.0
20260503220022 17 177 3.2 8.0 0.00 0.00 0.00 73 1033.9
20260503215518 17 200 3.2 8.0 0.00 0.00 0.00 74 1034.0
20260503215020 17 187 3.2 8.0 0.00 0.00 0.00 74 1033.9
20260503214520 17 182 1.6 9.7 0.00 0.00 0.00 75 1034.0
20260503214019 16 166 4.8 9.7 0.00 0.00 0.00 76 1034.0
20260503213519 16 147 3.2 9.7 0.00 0.00 0.00 76 1034.0
20260503213031 16 166 3.2 6.4 0.00 0.00 0.00 77 1034.0
20260503212522 16 169 3.2 8.0 0.00 0.00 0.00 77 1034.1
20260503212020 16 152 4.8 8.0 0.00 0.00 0.00 77 1034.0
20260503211521 16 218 3.2 12.9 0.00 0.00 0.00 78 1033.9
20260503211020 15 131 4.8 12.9 0.00 0.00 0.00 78 1034.0
20260503210519 15 160 4.8 12.9 0.00 0.00 0.00 79 1034.1
20260503210021 15 166 4.8 12.9 0.00 0.00 0.00 79 1034.1
20260503205533 15 191 4.8 8.0 0.00 0.00 0.00 79 1034.2
20260503205020 15 160 4.8 9.7 0.00 0.00 0.00 80 1034.2
20260503204531 15 169 4.8 9.7 0.00 0.00 0.00 80 1034.2
20260503204019 15 160 4.8 9.7 0.00 0.00 0.00 80 1034.3
20260503203530 15 162 3.2 8.0 0.00 0.00 0.00 80 1034.2
20260503203019 15 146 4.8 8.0 0.00 0.00 0.00 80 1034.1
20260503202519 15 172 3.2 8.0 0.00 0.00 0.00 81 1034.1
20260503202022 15 201 1.6 6.4 0.00 0.00 0.00 81 1034.2
20260503201536 15 182 1.6 6.4 0.00 0.00 0.00 82 1034.1
20260503201020 15 166 1.6 6.4 0.00 0.00 0.00 82 1034.2
20260503200519 15 177 1.6 8.0 0.00 0.00 0.00 82 1034.1
20260503200022 15 182 1.6 8.0 0.00 0.00 0.00 82 1034.1
20260503195519 15 177 3.2 6.4 0.00 0.00 0.00 82 1034.1
20260503195021 15 191 1.6 6.4 0.00 0.00 0.00 82 1034.1
20260503194523 15 187 0.0 4.8 0.00 0.00 0.00 82 1033.9
20260503194021 15 203 0.0 6.4 0.00 0.00 0.00 81 1034.0
20260503193520 14 205 1.6 8.0 0.00 0.00 0.00 81 1034.0
20260503193019 14 157 1.6 4.8 0.00 0.00 0.00 82 1034.0
20260503192521 14 141 0.0 4.8 0.00 0.00 0.00 82 1033.9
20260503192022 14 187 0.0 6.4 0.00 0.00 0.00 82 1033.8
20260503191532 14 177 1.6 4.8 0.00 0.00 0.00 82 1033.8
20260503191019 14 170 0.0 4.8 0.00 0.00 0.00 82 1033.8
20260503190520 14 173 1.6 4.8 0.00 0.00 0.00 83 1033.7
20260503190020 14 177 0.0 3.2 0.00 0.00 0.00 83 1033.7
20260503185530 14 172 0.0 1.6 0.00 0.00 0.00 83 1033.5
20260503185019 14 173 0.0 1.6 0.00 0.00 0.00 82 1033.5
20260503184519 14 173 0.0 3.2 0.00 0.00 0.00 82 1033.4
20260503184020 14 182 0.0 3.2 0.00 0.00 0.00 82 1033.5
20260503183521 14 182 0.0 3.2 0.00 0.00 0.00 82 1033.4
20260503183019 14 172 0.0 0.0 0.00 0.00 0.00 83 1033.4
20260503182531 14 172 0.0 0.0 0.00 0.00 0.00 83 1033.3
20260503182019 14 170 0.0 0.0 0.00 0.00 0.00 83 1033.3
20260503181520 14 170 0.0 0.0 0.00 0.00 0.00 83 1033.3
20260503181019 14 170 0.0 1.6 0.00 0.00 0.00 83 1033.2
20260503180520 14 171 0.0 3.2 0.00 0.00 0.00 84 1033.2
20260503180021 14 172 0.0 3.2 0.00 0.00 0.00 84 1033.2
20260503175520 14 172 0.0 3.2 0.00 0.00 0.00 84 1033.2
20260503175031 14 172 0.0 1.6 0.00 0.00 0.00 84 1033.1
20260503174521 14 171 0.0 3.2 0.00 0.00 0.00 84 1033.2
20260503174020 14 168 0.0 3.2 0.00 0.00 0.00 84 1033.2
20260503173520 14 170 0.0 1.6 0.00 0.00 0.00 83 1033.1
20260503173020 14 171 0.0 4.8 0.00 0.00 0.00 83 1033.0
20260503172522 14 163 1.6 4.8 0.00 0.00 0.00 83 1032.9
20260503172020 14 162 1.6 4.8 0.00 0.00 0.00 83 1032.9
20260503171519 14 157 1.6 4.8 0.00 0.00 0.00 83 1033.0
20260503171031 14 166 0.0 3.2 0.00 0.00 0.00 83 1033.0
20260503170531 14 165 0.0 4.8 0.00 0.00 0.00 83 1032.9
20260503150519 14 177 1.6 4.8 0.00 0.00 0.00 82 1033.4
20260503131017 15 170 0.0 4.8 0.00 0.00 0.00 82 1034.0
20260503130517 15 164 0.0 4.8 0.00 0.00 0.00 82 1034.0
20260503110517 15 200 0.0 0.0 0.00 0.00 0.00 79 1034.0
20260503053020 16 65 0.0 0.0 0.00 0.00 0.00 69 1032.3
20260503052519 16 64 0.0 0.0 0.00 0.00 0.00 67 1032.3
20260503031522 18 70 4.8 14.5 0.00 0.00 0.00 60 1032.3
20260503022508 18 91 1.6 12.9 0.00 0.00 0.00 61 1032.3
20260503011018 18 83 1.6 11.3 0.00 0.00 0.00 59 1032.9
20260503010522 20 73 1.6 14.5 0.00 0.00 0.00 57 1032.9
20260503010022 20 93 6.4 14.5 0.00 0.00 0.00 55 1033.0
20260503005521 20 157 0.0 3.2 0.00 0.00 0.00 57 1033.0
20260503005020 19 127 0.0 16.1 0.00 0.00 0.00 58 1033.0
20260503004531 18 68 9.7 17.7 0.00 0.00 0.00 58 1033.1
20260503004030 18 47 3.2 17.7 0.00 0.00 0.00 59 1033.2
20260503003521 19 81 8.0 17.7 0.00 0.00 0.00 59 1033.2
20260503000031 19 191 0.0 8.0 0.00 0.00 0.00 61 1033.6
20260503000019 19 168 0.0 8.0 0.00 0.00 0.00 60 1033.6
20260502230023 18 146 1.6 9.7 0.00 0.00 0.00 63 1034.3
20260502225022 18 177 4.8 8.0 0.00 0.00 0.00 63 1034.3
20260502224522 18 182 3.2 6.4 0.00 0.00 0.00 64 1034.3
20260502224021 18 177 1.6 6.4 0.00 0.00 0.00 66 1034.4
20260502223523 18 216 1.6 6.4 0.00 0.00 0.00 67 1034.4
20260502223022 18 202 1.6 6.4 0.00 0.00 0.00 67 1034.5
20260502222532 18 177 1.6 6.4 0.00 0.00 0.00 68 1034.5
20260502222017 18 198 0.0 8.0 0.00 0.00 0.00 69 1034.5
20260502221519 17 221 1.6 8.0 0.00 0.00 0.00 69 1034.4